Location: Eimen
(51.8766°N, 9.7806°E)
Time: 11:31:19
(UTC+00:00)

Okean 1-7 - Pass Details

Date: 23 May 2024
Orbit: 579 x 604 km, 82.5° (Epoch: 18 June)

Event Time Altitude Azimuth Distance (km) Brightness Sun altitude
Exits shadow 01:30:35 16° 229° (SW) 1,562 4.5 -11.9°
Maximum altitude 01:33:28 36° 289° (WNW) 969 3.9 -11.6°
Drops below altitude 10° 01:37:29 10° 356° (N) 1,961 6.5 -11.3°
Sets 01:39:52 0° 5° (N) 2,872 7.7 -11.1°
